Погода Лодейное Поле

Погода Лодейное Поле : погода сейчас, прогноз погоды и архив. Всё, что Вы хотите узнать о погоде Лодейное Поле!

Хотите узнать прогноз погоды Лодейное Поле? Тогда Вам сюда: Погода Лодейное Поле

Поиск расширенной информации на нашем сайте:

Другие новости

Новости СМИ2

Главная страница сайта

Новости сайта

03.07.2017

Напоминаем, что на нашем специализированном сайте Метеоцентр.Азия вы можете получить высокодетализированные автоматические прогнозы погоды по пунктам России, СНГ и мира в авиационном формате (включающие направление и скорость ветра, видимость, явления погоды, количество и форму облачности, нижнюю и верхнюю границу облачности).


Погода Лодейное Поле - сегодня

Время (UTC), дата Ветер
(°,м/с) 
Видим.   Явления Облачность Т
(°С)
Тd
(°С)
f(%) Тe
(°С)
Pmin
(гПа)
dP
(гПа)
Po
(мм)
O2
(г/м3)
Тmin Tmax R s Состояние
почвы
15 09.12.17 150 (ЮВ) 4000 м  слаб. морось  10/10 210 м 
[St]
+0.6 +0.4 99 1007.4  1.4  753  303      0.0     
18 09.12.17 160 (Ю) 4000 м  дымка{морось}  10/10 300 м 
[St]
+0.6 +0.2 97 1008  0.6  754  303    +0.7  0.0     
21 09.12.17 160 (Ю) 4000 м  дымка  10/10 540 м 
[Sc]
+0.8 -0.1 94 1008.6  0.5  754  303           
00 10.12.17 140 (ЮВ) 4000 м  дымка  9/9 660 м 
[Sc]
+0.2 -0.2 97 +1  1008.5  0.1  754  304           
03 10.12.17 тихо ()   4000 м  дымка  10/10 500 м 
[Sc]
+0.6 -0.3 94 +1  1007.5  -1  753  303  -0.9         
06 10.12.17 100 (В) 10 км    10/10 420 м 
[Sc]
+0.9 -0.4 91 1005.8  -1.7  752  302  -0.9      11  равномерный
мокрый или
старый снег
100% 
09 10.12.17 150 (ЮВ) 10 км    10/10 360 м 
[Sc]
+1.1 -0.1 92 1005.3  -0.5  752  302           
12 10.12.17 150 (ЮВ) 10 км    10/10 400 м 
[Sc]
+1.3 -0.3 89 +1  1004.3  -1  751  301           
15 10.12.17 140 (ЮВ) 4000 м  слаб. снег  10/10 180 м 
[Frnb|Ns]
+0.6 -0.2 94 1003.8  -0.4  751  302      0.1     
18 10.12.17 130 (ЮВ) 4000 м  слаб. снег  10/10 330 м 
[Frnb|Ns]
+0.4 -0.1 96 +1  1003.2  -0.6  750  302    +1.4  0.7     
21 10.12.17 130 (ЮВ) 4000 м  слаб. снег  10/10 270 м 
[Frnb|Ns]
+0.2 -0.1 98 +1  1003.4  0.2  750  302           
00 11.12.17 120 (ЮВ) 4000 м  слаб. снег  10/10 210 м 
[Frnb|Ns]
+0.2 -0.1 98 +1  1003.5  0.1  750  302           
03 11.12.17 тихо ()   4000 м  слаб. снег  10/10 210 м 
[Frnb|Ns]
+0.1 -0.1 99 1002.9  -0.6  750  302  +0.1       
06 11.12.17 060 (СВ) 4000 м  слаб. снег [диам. отлож. мокр. снега 2 мм]  10/10 120 м 
[Frnb|Ns]
+0.1 +0 99 +1  1002.6  -0.3  750  302  +0.1    14  равномерный
мокрый или
старый снег
100% 
09 11.12.17 тихо ()   4000 м  слаб. снег [диам. отлож. мокр. снега 8 мм]  10/10 300 м 
[Frnb|Ns]
+0.3 +0.2 99 1003.3  0.7  750  302           
12 11.12.17 тихо ()   4000 м  слаб. снег  10/10 400 м 
[Frnb|Ns]
+0.3 +0.2 99 1003.9  0.6  751  302           
15 11.12.17 060 (СВ) 2000 м  слаб. снег  10/10 330 м 
[Frnb|Ns]
+0.3 +0.2 99 +1  1004.5  0.6  751  302         
18 11.12.17 110 (В) 2000 м  дымка{снег}  10/10 540 м 
[Sc]
+0.8 +0.6 99 +1  1005.5  752  302    +0.9     
21 11.12.17 120 (ЮВ) 2000 м  дымка{снег, дождь}  10/10 480 м 
[Sc]
+0.9 +0.8 99 +2  1006.5  1.1  753  302           
00 12.12.17 130 (ЮВ) 4000 м  дымка{снег, дождь}  10/10 450 м 
[Sc]
+1.1 +0.8 98 +2  1007.3  0.8  753  302           
03 12.12.17 160 (Ю) 4000 м  слаб. дождь{снег}  10/10 240 м 
[Frnb|Ns]
+1 +0.8 99 +2  1008.1  0.8  754  303  +0.3    0.4     
06 12.12.17 140 (ЮВ) 4000 м  дымка{снег, дождь}  10/10 180 м 
[St]
+1 +0.8 99 1008  -0.1  754  303  +0.7    0.4  15  равномерный
мокрый или
старый снег
100% 
09 12.12.17 130 (ЮВ) 4000 м  дымка  10/10 400 м 
[Sc]
+1.2 +0.4 94 +1  1007.2  -0.9  753  302           
12 12.12.17 130 (ЮВ) 10 км  {ливн. осадки}  9/8 450 м кучево-дожд., средняя 
[Cb cap|Ac trans]
+1.2 -0.8 86 1004.4  -2.8  751  301           
15 12.12.17 130 (ЮВ) 3{10}  10 км    10/10 480 м 
[Sc]
+1.4 -1.2 83 1001.4  -2.6  749  300      0.0     
Время (UTC), дата Ветер
(°,м/с) 
Видим.   Явления Облачность Т
(°С)
Тd
(°С)
f(%) Тe
(°С)
Pmin
(гПа)
dP
(гПа)
Po
(мм)
O2
(г/м3)
Тmin Tmax R s Состояние
почвы

Для получения пояснительной информации подведите курсор к названию столбца.

ПОГОДА Лодейное Поле - архив

Всё, что Вы хотите узнать о погоде Лодейное Поле - удобно и подробно!

Выберите нужную дату (начиная с 1 января 2015* года) и нажмите кнопку "Найти".
Будут отображены архивные сводки погоды по пункту Лодейное Поле, начиная с указанной даты.


Отображать данные в формате CSV (для использования в таблицах Excel)


Внимание! Наш архив погоды предназначен исключительно для личного некоммерческого использования в познавательных целях. Если Вам необходимы официальные справки о состоянии погоды (для производственных, юридических, коммерческих и т.п. целей), обращайтесь в органы Росгидромета.

*Примечание: данная дата относится к архиву по метеостанциям СССР (Россия, СНГ, Балтия).
Архив по метеостанциям Зарубежной Европы и Азии (кроме Китая) хранится 10 дней, по другим регионам земного шара (Китай, Африка, Америка, Австралия, Океания) - 1 день.

Лодейное Поле - район местоположения метеостанции


Название, широта, долгота, высота метеостанции:
Лодейное Поле 60.7°ш. 33.6°д. 23 м над ур. моря [Российская Федерация]

Дополнительная информация

В oтличие oт бoльшинства пoгoдных сайтoв мы публикуем пoдрoбную метеoинфoрмацию в детальнoм прoфессиoнальнoм фoрмате.

Характеристики температуры и влажнoсти вoздуха измеряются на высoте 2 м в тени вдали oт зданий и деревьев.
Скoрoсть ветра измеряется на высoте 10 м (на урoвне рoста челoвека скoрoсть ветра ниже в 1.5-2 раза). Если метеoстанция нахoдится в гoрoде или в лесу, тo скoрoсть ветра занижена на 2-4 м/с пo сравнению с oткрытым местoм. Скoрoсть ветра над акватoриями крупных рек и oзёр, а также на вершинах хoлмoв на 2-5 м/с выше, чем в oбычных услoвиях.
Атмoсфернoе давление в разных тoчках местнoсти мoжет значительнo oтличаться oт давления на метеoстанции, в зависимoсти oт услoвий рельефа (при пoдъёме на 10 м давление пoнижается примернo на 1 мм рт.ст.).